TimeCDT,TemperatureF,Dew PointF,Humidity,Sea Level PressureIn,VisibilityMPH,Wind Direction,Wind SpeedMPH,Gust SpeedMPH,PrecipitationIn,Events,Conditions,WindDirDegrees,DateUTC
12:53 AM,39.9,33.1,77,29.37,10.0,SW,20.7,27.6,N/A,,Overcast,230,2013-04-19 05:53:00
1:33 AM,39.2,33.8,81,29.34,10.0,SW,16.1,28.8,N/A,,Overcast,230,2013-04-19 06:33:00
1:41 AM,39.2,33.8,81,29.35,10.0,SW,23.0,28.8,N/A,,Overcast,220,2013-04-19 06:41:00
1:53 AM,37.9,33.1,83,29.37,10.0,SW,17.3,-,N/A,,Overcast,220,2013-04-19 06:53:00
2:53 AM,37.0,30.9,79,29.34,10.0,SSW,18.4,25.3,N/A,,Overcast,210,2013-04-19 07:53:00
3:31 AM,37.4,30.2,75,29.32,10.0,SSW,19.6,27.6,N/A,,Overcast,210,2013-04-19 08:31:00
3:53 AM,37.0,30.0,76,29.34,10.0,SW,25.3,32.2,N/A,,Overcast,230,2013-04-19 08:53:00
4:41 AM,35.6,30.2,81,29.31,10.0,SW,18.4,29.9,N/A,,Overcast,230,2013-04-19 09:41:00
4:53 AM,36.0,30.0,79,29.33,10.0,SW,18.4,26.5,N/A,,Overcast,230,2013-04-19 09:53:00
5:20 AM,35.6,28.4,75,29.30,10.0,SW,23.0,29.9,N/A,,Overcast,230,2013-04-19 10:20:00
5:44 AM,35.6,28.4,75,29.30,10.0,WSW,17.3,27.6,N/A,,Overcast,240,2013-04-19 10:44:00
5:53 AM,36.0,28.9,76,29.32,10.0,SW,19.6,27.6,N/A,,Overcast,230,2013-04-19 10:53:00
6:53 AM,35.1,28.9,78,29.32,10.0,SW,19.6,31.1,N/A,,Overcast,230,2013-04-19 11:53:00
7:53 AM,36.0,28.9,76,29.32,10.0,WSW,24.2,33.4,N/A,,Overcast,240,2013-04-19 12:53:00
8:04 AM,35.6,28.4,75,29.30,10.0,WSW,23.0,33.4,N/A,,Overcast,240,2013-04-19 13:04:00
8:11 AM,35.6,28.4,75,29.30,10.0,SW,23.0,32.2,N/A,,Overcast,230,2013-04-19 13:11:00
8:43 AM,37.4,30.2,75,29.30,10.0,WSW,25.3,32.2,N/A,,Overcast,240,2013-04-19 13:43:00
8:53 AM,36.0,28.9,76,29.31,10.0,WSW,25.3,33.4,N/A,,Overcast,240,2013-04-19 13:53:00
9:19 AM,37.4,28.4,70,29.30,10.0,WSW,26.5,40.3,N/A,,Overcast,240,2013-04-19 14:19:00
9:53 AM,39.0,30.9,73,29.33,10.0,WSW,25.3,36.8,0.00,,Overcast,250,2013-04-19 14:53:00
10:12 AM,35.6,30.2,81,29.33,2.0,West,31.1,39.1,0.00,Snow,Light Snow,260,2013-04-19 15:12:00
10:19 AM,35.6,30.2,81,29.33,1.2,West,20.7,39.1,0.00,Snow,Light Snow,260,2013-04-19 15:19:00
10:24 AM,35.6,30.2,81,29.33,3.0,West,27.6,32.2,0.01,Snow,Light Snow,260,2013-04-19 15:24:00
10:53 AM,37.0,30.9,79,29.36,4.0,West,17.3,35.7,0.01,Snow,Light Snow,270,2013-04-19 15:53:00
11:04 AM,35.6,28.4,75,29.35,5.0,West,26.5,35.7,0.00,Snow,Light Snow,270,2013-04-19 16:04:00
11:41 AM,35.6,28.4,75,29.37,9.0,West,24.2,35.7,0.00,Snow,Light Snow,280,2013-04-19 16:41:00
11:51 AM,35.6,28.4,75,29.38,10.0,West,21.9,29.9,0.00,,Overcast,270,2013-04-19 16:51:00
11:53 AM,36.0,28.9,76,29.40,10.0,West,20.7,32.2,0.00,,Overcast,270,2013-04-19 16:53:00
12:53 PM,36.0,27.0,70,29.43,7.0,West,20.7,36.8,0.00,Snow,Light Snow,270,2013-04-19 17:53:00
1:15 PM,33.8,28.4,81,29.42,1.8,West,24.2,32.2,0.00,Snow,Light Snow,270,2013-04-19 18:15:00
1:27 PM,35.6,26.6,70,29.43,3.0,West,23.0,40.3,0.00,Snow,Light Snow,270,2013-04-19 18:27:00
1:53 PM,37.9,28.0,68,29.46,10.0,West,25.3,40.3,0.00,,Overcast,260,2013-04-19 18:53:00
2:53 PM,37.0,26.1,65,29.50,9.0,WNW,24.2,33.4,0.00,,Overcast,290,2013-04-19 19:53:00
3:53 PM,36.0,27.0,70,29.54,8.0,West,21.9,32.2,0.00,Snow,Light Snow,280,2013-04-19 20:53:00
4:53 PM,37.0,26.1,65,29.59,9.0,West,24.2,33.4,0.00,,Overcast,270,2013-04-19 21:53:00
5:10 PM,33.8,24.8,70,29.60,1.8,WNW,23.0,43.7,0.00,Snow,Light Snow,290,2013-04-19 22:10:00
5:19 PM,33.8,26.6,75,29.59,3.0,West,19.6,26.5,0.00,Snow,Light Snow,280,2013-04-19 22:19:00
5:53 PM,35.1,27.0,72,29.63,10.0,West,16.1,29.9,0.00,,Overcast,280,2013-04-19 22:53:00
6:53 PM,34.0,24.1,67,29.67,10.0,NW,20.7,29.9,N/A,,Mostly Cloudy,310,2013-04-19 23:53:00
7:53 PM,34.0,23.0,64,29.71,10.0,WNW,13.8,23.0,N/A,,Mostly Cloudy,300,2013-04-20 00:53:00
8:53 PM,32.0,24.1,73,29.77,10.0,NW,6.9,-,0.00,,Mostly Cloudy,310,2013-04-20 01:53:00
9:53 PM,30.9,18.0,59,29.81,10.0,NW,15.0,25.3,0.00,,Partly Cloudy,320,2013-04-20 02:53:00
10:53 PM,30.0,19.0,64,29.84,10.0,NNW,13.8,21.9,N/A,,Mostly Cloudy,330,2013-04-20 03:53:00
11:53 PM,28.9,19.0,67,29.88,10.0,NW,13.8,-,N/A,,Mostly Cloudy,320,2013-04-20 04:53:00